Year,Month,Day,Hour,Minute,Value (Times are PST for temperature in C)
2015,03,02,00,00,4.30
2015,03,02,00,01,4.30
2015,03,02,00,02,4.30
2015,03,02,00,03,4.30
2015,03,02,00,04,4.30
2015,03,02,00,05,4.30
2015,03,02,00,06,4.30
2015,03,02,00,07,4.30
2015,03,02,00,08,4.30
2015,03,02,00,09,4.30
2015,03,02,00,10,4.20
2015,03,02,00,11,4.30
2015,03,02,00,12,4.30
2015,03,02,00,13,4.30
2015,03,02,00,14,4.30
2015,03,02,00,15,4.30
2015,03,02,00,16,4.30
2015,03,02,00,17,4.30
2015,03,02,00,18,4.30
2015,03,02,00,19,4.30
2015,03,02,00,20,4.30
2015,03,02,00,21,4.20
2015,03,02,00,22,4.20
2015,03,02,00,23,4.20
2015,03,02,00,24,4.20
2015,03,02,00,25,4.20
2015,03,02,00,26,4.20
2015,03,02,00,27,4.20
2015,03,02,00,28,4.20
2015,03,02,00,29,4.20
2015,03,02,00,30,4.20
2015,03,02,00,31,4.20
2015,03,02,00,32,4.20
2015,03,02,00,33,4.20
2015,03,02,00,34,4.20
2015,03,02,00,35,4.20
2015,03,02,00,36,4.20
2015,03,02,00,37,4.20
2015,03,02,00,38,4.20
2015,03,02,00,39,4.20
2015,03,02,00,40,4.20
2015,03,02,00,41,4.20
2015,03,02,00,42,4.20
2015,03,02,00,43,4.20
2015,03,02,00,44,4.20
2015,03,02,00,45,4.20
2015,03,02,00,46,4.20
2015,03,02,00,47,4.20
2015,03,02,00,48,4.20
2015,03,02,00,49,4.20
2015,03,02,00,50,4.20
2015,03,02,00,51,4.20
2015,03,02,00,52,4.20
2015,03,02,00,53,4.20
2015,03,02,00,54,4.20
2015,03,02,00,55,4.20
2015,03,02,00,56,4.20
2015,03,02,00,57,4.20
2015,03,02,00,58,4.20
2015,03,02,00,59,4.20
2015,03,02,01,00,4.20
2015,03,02,01,01,4.10
2015,03,02,01,02,4.10
2015,03,02,01,03,4.10
2015,03,02,01,04,4.10
2015,03,02,01,05,4.10
2015,03,02,01,06,4.10
2015,03,02,01,07,4.10
2015,03,02,01,08,4.10
2015,03,02,01,09,4.10
2015,03,02,01,10,4.10
2015,03,02,01,11,4.00
2015,03,02,01,12,4.00
2015,03,02,01,13,4.00
2015,03,02,01,14,4.00
2015,03,02,01,15,3.90
2015,03,02,01,16,3.90
2015,03,02,01,17,3.90
2015,03,02,01,18,3.90
2015,03,02,01,19,3.90
2015,03,02,01,20,3.90
2015,03,02,01,21,3.90
2015,03,02,01,22,3.90
2015,03,02,01,23,3.80
2015,03,02,01,24,3.80
2015,03,02,01,25,3.80
2015,03,02,01,26,3.80
2015,03,02,01,27,3.80
2015,03,02,01,28,3.80
2015,03,02,01,29,3.80
2015,03,02,01,30,3.80
2015,03,02,01,31,3.80
2015,03,02,01,32,3.80
2015,03,02,01,33,3.80
2015,03,02,01,34,3.80
2015,03,02,01,35,3.80
2015,03,02,01,36,3.80
2015,03,02,01,37,3.80
2015,03,02,01,38,3.80
2015,03,02,01,39,3.80
2015,03,02,01,40,3.80
2015,03,02,01,41,3.80
2015,03,02,01,42,3.70
2015,03,02,01,43,3.70
2015,03,02,01,44,3.70
2015,03,02,01,45,3.70
2015,03,02,01,46,3.70
2015,03,02,01,47,3.70
2015,03,02,01,48,3.60
2015,03,02,01,49,3.60
2015,03,02,01,50,3.60
2015,03,02,01,51,3.60
2015,03,02,01,52,3.60
2015,03,02,01,53,3.60
2015,03,02,01,54,3.60
2015,03,02,01,55,3.60
2015,03,02,01,56,3.60
2015,03,02,01,57,3.60
2015,03,02,01,58,3.60
2015,03,02,01,59,3.60
2015,03,02,02,00,3.60
2015,03,02,02,01,3.60
2015,03,02,02,02,3.60
2015,03,02,02,03,3.60
2015,03,02,02,04,3.60
2015,03,02,02,05,3.60
2015,03,02,02,06,3.70
2015,03,02,02,07,3.70
2015,03,02,02,08,3.70
2015,03,02,02,09,3.60
2015,03,02,02,10,3.60
2015,03,02,02,11,3.60
2015,03,02,02,12,3.60
2015,03,02,02,13,3.70
2015,03,02,02,14,3.70
2015,03,02,02,15,3.60
2015,03,02,02,16,3.60
2015,03,02,02,17,3.60
2015,03,02,02,18,3.60
2015,03,02,02,19,3.60
2015,03,02,02,20,3.60
2015,03,02,02,21,3.60
2015,03,02,02,22,3.60
2015,03,02,02,23,3.60
2015,03,02,02,24,3.50
2015,03,02,02,25,3.50
2015,03,02,02,26,3.40
2015,03,02,02,27,3.40
2015,03,02,02,28,3.40
2015,03,02,02,29,3.40
2015,03,02,02,30,3.40
2015,03,02,02,31,3.40
2015,03,02,02,32,3.40
2015,03,02,02,33,3.40
2015,03,02,02,34,3.40
2015,03,02,02,35,3.30
2015,03,02,02,36,3.30
2015,03,02,02,37,3.20
2015,03,02,02,38,3.20
2015,03,02,02,39,3.20
2015,03,02,02,40,3.20
2015,03,02,02,41,3.20
2015,03,02,02,42,3.20
2015,03,02,02,43,3.20
2015,03,02,02,44,3.20
2015,03,02,02,45,3.20
2015,03,02,02,46,3.20
2015,03,02,02,47,3.20
2015,03,02,02,48,3.20
2015,03,02,02,49,3.10
2015,03,02,02,50,3.10
2015,03,02,02,51,3.10
2015,03,02,02,52,3.10
2015,03,02,02,53,3.10
2015,03,02,02,54,3.10
2015,03,02,02,55,3.10
2015,03,02,02,56,3.00
2015,03,02,02,57,3.00
2015,03,02,02,58,3.00
2015,03,02,02,59,2.90
2015,03,02,03,00,2.90
2015,03,02,03,01,2.90
2015,03,02,03,02,2.80
2015,03,02,03,03,2.80
2015,03,02,03,04,2.70
2015,03,02,03,05,2.70
2015,03,02,03,06,2.70
2015,03,02,03,07,2.60
2015,03,02,03,08,2.60
2015,03,02,03,09,2.60
2015,03,02,03,10,2.50
2015,03,02,03,11,2.50
2015,03,02,03,12,2.40
2015,03,02,03,13,2.40
2015,03,02,03,14,2.40
2015,03,02,03,15,2.30
2015,03,02,03,16,2.30
2015,03,02,03,17,2.30
2015,03,02,03,18,2.30
2015,03,02,03,19,2.30
2015,03,02,03,20,2.20
2015,03,02,03,21,2.30
2015,03,02,03,22,2.30
2015,03,02,03,23,2.30
2015,03,02,03,24,2.20
2015,03,02,03,25,2.20
2015,03,02,03,26,2.20
2015,03,02,03,27,2.20
2015,03,02,03,28,2.20
2015,03,02,03,29,2.20
2015,03,02,03,30,2.10
2015,03,02,03,31,2.10
2015,03,02,03,32,2.20
2015,03,02,03,33,2.20
2015,03,02,03,34,2.20
2015,03,02,03,35,2.20
2015,03,02,03,36,2.10
2015,03,02,03,37,2.10
2015,03,02,03,38,2.10
2015,03,02,03,39,2.10
2015,03,02,03,40,2.10
2015,03,02,03,41,2.10
2015,03,02,03,42,2.00
2015,03,02,03,43,2.00
2015,03,02,03,44,2.00
2015,03,02,03,45,2.00
2015,03,02,03,46,2.00
2015,03,02,03,47,2.00
2015,03,02,03,48,2.00
2015,03,02,03,49,1.90
2015,03,02,03,50,1.90
2015,03,02,03,51,1.90
2015,03,02,03,52,1.90
2015,03,02,03,53,1.90
2015,03,02,03,54,1.90
2015,03,02,03,55,1.90
2015,03,02,03,56,1.90
2015,03,02,03,57,1.90
2015,03,02,03,58,1.90
2015,03,02,03,59,1.90
2015,03,02,04,00,1.90
2015,03,02,04,01,1.90
2015,03,02,04,02,1.90
2015,03,02,04,03,1.90
2015,03,02,04,04,1.80
2015,03,02,04,05,1.80
2015,03,02,04,06,1.80
2015,03,02,04,07,1.80
2015,03,02,04,08,1.80
2015,03,02,04,09,1.80
2015,03,02,04,10,1.80
2015,03,02,04,11,1.70
2015,03,02,04,12,1.70
2015,03,02,04,13,1.70
2015,03,02,04,14,1.70
2015,03,02,04,15,1.70
2015,03,02,04,16,1.70
2015,03,02,04,17,1.70
2015,03,02,04,18,1.70
2015,03,02,04,19,1.70
2015,03,02,04,20,1.70
2015,03,02,04,21,1.70
2015,03,02,04,22,1.70
2015,03,02,04,23,1.70
2015,03,02,04,24,1.70
2015,03,02,04,25,1.70
2015,03,02,04,26,1.70
2015,03,02,04,27,1.70
2015,03,02,04,28,1.70
2015,03,02,04,29,1.70
2015,03,02,04,30,1.70
2015,03,02,04,31,1.70
2015,03,02,04,32,1.70
2015,03,02,04,33,1.70
2015,03,02,04,34,1.70
2015,03,02,04,35,1.70
2015,03,02,04,36,1.80
2015,03,02,04,37,1.80
2015,03,02,04,38,1.80
2015,03,02,04,39,1.80
2015,03,02,04,40,1.80
2015,03,02,04,41,1.80
2015,03,02,04,42,1.80
2015,03,02,04,43,1.80
2015,03,02,04,44,1.80
2015,03,02,04,45,1.80
2015,03,02,04,46,1.80
2015,03,02,04,47,1.80
2015,03,02,04,48,1.90
2015,03,02,04,49,1.90
2015,03,02,04,50,1.90
2015,03,02,04,51,1.90
2015,03,02,04,52,1.90
2015,03,02,04,53,1.90
2015,03,02,04,54,1.90
2015,03,02,04,55,1.90
2015,03,02,04,56,1.90
2015,03,02,04,57,1.90
2015,03,02,04,58,2.00
2015,03,02,04,59,2.00
2015,03,02,05,00,2.00
2015,03,02,05,01,2.00
2015,03,02,05,02,2.00
2015,03,02,05,03,2.00
2015,03,02,05,04,2.00
2015,03,02,05,05,2.00
2015,03,02,05,06,2.10
2015,03,02,05,07,2.10
2015,03,02,05,08,2.10
2015,03,02,05,09,2.10
2015,03,02,05,10,2.10
2015,03,02,05,11,2.10
2015,03,02,05,12,2.10
2015,03,02,05,13,2.10
2015,03,02,05,14,2.10
2015,03,02,05,15,2.10
2015,03,02,05,16,2.00
2015,03,02,05,17,2.00
2015,03,02,05,18,2.00
2015,03,02,05,19,2.00
2015,03,02,05,20,2.00
2015,03,02,05,21,2.00
2015,03,02,05,22,2.00
2015,03,02,05,23,2.00
2015,03,02,05,24,1.90
2015,03,02,05,25,1.90
2015,03,02,05,26,1.90
2015,03,02,05,27,1.90
2015,03,02,05,28,1.90
2015,03,02,05,29,1.90
2015,03,02,05,30,1.90
2015,03,02,05,31,1.90
2015,03,02,05,32,1.80
2015,03,02,05,33,1.80
2015,03,02,05,34,1.80
2015,03,02,05,35,1.80
2015,03,02,05,36,1.80
2015,03,02,05,37,1.80
2015,03,02,05,38,1.80
2015,03,02,05,39,1.80
2015,03,02,05,40,1.70
2015,03,02,05,41,1.70
2015,03,02,05,42,1.70
2015,03,02,05,43,1.70
2015,03,02,05,44,1.70
2015,03,02,05,45,1.70
2015,03,02,05,46,1.70
2015,03,02,05,47,1.60
2015,03,02,05,48,1.60
2015,03,02,05,49,1.60
2015,03,02,05,50,1.60
2015,03,02,05,51,1.50
2015,03,02,05,52,1.50
2015,03,02,05,53,1.50
2015,03,02,05,54,1.50
2015,03,02,05,55,1.40
2015,03,02,05,56,1.40
2015,03,02,05,57,1.40
2015,03,02,05,58,1.40
2015,03,02,05,59,1.30
2015,03,02,06,00,1.30
2015,03,02,06,01,1.30
2015,03,02,06,02,1.30
2015,03,02,06,03,1.30
2015,03,02,06,04,1.30
2015,03,02,06,05,1.20
2015,03,02,06,06,1.20
2015,03,02,06,07,1.20
2015,03,02,06,08,1.20
2015,03,02,06,09,1.20
2015,03,02,06,10,1.20
2015,03,02,06,11,1.20
2015,03,02,06,12,1.20
2015,03,02,06,13,1.20
2015,03,02,06,14,1.20
2015,03,02,06,15,1.20
2015,03,02,06,16,1.20
2015,03,02,06,17,1.20
2015,03,02,06,18,1.20
2015,03,02,06,19,1.10
2015,03,02,06,20,1.10
2015,03,02,06,21,1.10
2015,03,02,06,22,1.10
2015,03,02,06,23,1.10
2015,03,02,06,24,1.10
2015,03,02,06,25,1.10
2015,03,02,06,26,1.10
2015,03,02,06,27,1.10
2015,03,02,06,28,1.10
2015,03,02,06,29,1.10
2015,03,02,06,30,1.00
2015,03,02,06,31,1.00
2015,03,02,06,32,1.00
2015,03,02,06,33,1.00
2015,03,02,06,34,1.00
2015,03,02,06,35,1.00
2015,03,02,06,36,1.00
2015,03,02,06,37,1.00
2015,03,02,06,38,1.00
2015,03,02,06,39,1.00
2015,03,02,06,40,0.90
2015,03,02,06,41,0.90
2015,03,02,06,42,0.90
2015,03,02,06,43,0.90
2015,03,02,06,44,0.80
2015,03,02,06,45,0.80
2015,03,02,06,46,0.80
2015,03,02,06,47,0.80
2015,03,02,06,48,0.70
2015,03,02,06,49,0.70
2015,03,02,06,50,0.70
2015,03,02,06,51,0.70
2015,03,02,06,52,0.60
2015,03,02,06,53,0.60
2015,03,02,06,54,0.60
2015,03,02,06,55,0.60
2015,03,02,06,56,0.50
2015,03,02,06,57,0.50
2015,03,02,06,58,0.50
2015,03,02,06,59,0.50
2015,03,02,07,00,0.50
2015,03,02,07,01,0.50
2015,03,02,07,02,0.50
2015,03,02,07,03,0.50
2015,03,02,07,04,0.50
2015,03,02,07,05,0.50
2015,03,02,07,06,0.40
2015,03,02,07,07,0.40
2015,03,02,07,08,0.40
2015,03,02,07,09,0.40
2015,03,02,07,10,0.40
2015,03,02,07,11,0.40
2015,03,02,07,12,0.40
2015,03,02,07,13,0.40
2015,03,02,07,14,0.40
2015,03,02,07,15,0.30
2015,03,02,07,16,0.30
2015,03,02,07,17,0.30
2015,03,02,07,18,0.30
2015,03,02,07,19,0.30
2015,03,02,07,20,0.30
2015,03,02,07,21,0.30
2015,03,02,07,22,0.30
2015,03,02,07,23,0.30
2015,03,02,07,24,0.30
2015,03,02,07,25,0.30
2015,03,02,07,26,0.30
2015,03,02,07,27,0.30
2015,03,02,07,28,0.30
2015,03,02,07,29,0.30
2015,03,02,07,30,0.30
2015,03,02,07,31,0.30
2015,03,02,07,32,0.30
2015,03,02,07,33,0.30
2015,03,02,07,34,0.30
2015,03,02,07,35,0.30
2015,03,02,07,36,0.30
2015,03,02,07,37,0.30
2015,03,02,07,38,0.40
2015,03,02,07,39,0.40
2015,03,02,07,40,0.40
2015,03,02,07,41,0.40
2015,03,02,07,42,0.40
2015,03,02,07,43,0.50
2015,03,02,07,44,0.50
2015,03,02,07,45,0.50
2015,03,02,07,46,0.50
2015,03,02,07,47,0.60
2015,03,02,07,48,0.60
2015,03,02,07,49,0.60
2015,03,02,07,50,0.60
2015,03,02,07,51,0.60
2015,03,02,07,52,0.60
2015,03,02,07,53,0.60
2015,03,02,07,54,0.60
2015,03,02,07,55,0.60
2015,03,02,07,56,0.60
2015,03,02,07,57,0.60
2015,03,02,07,58,0.60
2015,03,02,07,59,0.60
2015,03,02,08,00,0.60
2015,03,02,08,01,0.70
2015,03,02,08,02,0.70
2015,03,02,08,03,0.80
2015,03,02,08,04,0.80
2015,03,02,08,05,0.90
2015,03,02,08,06,0.90
2015,03,02,08,07,1.00
2015,03,02,08,08,1.00
2015,03,02,08,09,1.10
2015,03,02,08,10,1.10
2015,03,02,08,11,1.10
2015,03,02,08,12,1.20
2015,03,02,08,13,1.30
2015,03,02,08,14,1.30
2015,03,02,08,15,1.30
2015,03,02,08,16,1.40
2015,03,02,08,17,1.40
2015,03,02,08,18,1.50
2015,03,02,08,19,1.50
2015,03,02,08,20,1.60
2015,03,02,08,21,1.60
2015,03,02,08,22,1.70
2015,03,02,08,23,1.70
2015,03,02,08,24,1.70
2015,03,02,08,25,1.80
2015,03,02,08,26,1.80
2015,03,02,08,27,1.90
2015,03,02,08,28,2.00
2015,03,02,08,29,2.00
2015,03,02,08,30,2.10
2015,03,02,08,31,2.20
2015,03,02,08,32,2.20
2015,03,02,08,33,2.20
2015,03,02,08,34,2.30
2015,03,02,08,35,2.30
2015,03,02,08,36,2.40
2015,03,02,08,37,2.40
2015,03,02,08,38,2.50
2015,03,02,08,39,2.50
2015,03,02,08,40,2.60
2015,03,02,08,41,2.70
2015,03,02,08,42,2.70
2015,03,02,08,43,2.80
2015,03,02,08,44,2.80
2015,03,02,08,45,2.90
2015,03,02,08,46,2.90
2015,03,02,08,47,3.00
2015,03,02,08,48,3.00
2015,03,02,08,49,3.10
2015,03,02,08,50,3.10
2015,03,02,08,51,3.20
2015,03,02,08,52,3.20
2015,03,02,08,53,3.30
2015,03,02,08,54,3.40
2015,03,02,08,55,3.40
2015,03,02,08,56,3.50
2015,03,02,08,57,3.50
2015,03,02,08,58,3.60
2015,03,02,08,59,3.60
2015,03,02,09,00,3.70
2015,03,02,09,01,3.70
2015,03,02,09,02,3.80
2015,03,02,09,03,3.80
2015,03,02,09,04,3.90
2015,03,02,09,05,4.00
2015,03,02,09,06,4.10
2015,03,02,09,07,4.10
2015,03,02,09,08,4.20
2015,03,02,09,09,4.20
2015,03,02,09,10,4.30
2015,03,02,09,11,4.30
2015,03,02,09,12,4.30
2015,03,02,09,13,4.30
2015,03,02,09,14,4.40
2015,03,02,09,15,4.40
2015,03,02,09,16,4.50
2015,03,02,09,17,4.60
2015,03,02,09,18,4.70
2015,03,02,09,19,4.80
2015,03,02,09,20,4.80
2015,03,02,09,21,4.90
2015,03,02,09,22,5.00
2015,03,02,09,23,5.10
2015,03,02,09,24,5.10
2015,03,02,09,25,5.10
2015,03,02,09,26,5.20
2015,03,02,09,27,5.20
2015,03,02,09,28,5.20
2015,03,02,09,29,5.20
2015,03,02,09,30,5.20
2015,03,02,09,31,5.20
2015,03,02,09,32,5.30
2015,03,02,09,33,5.30
2015,03,02,09,34,5.30
2015,03,02,09,35,5.40
2015,03,02,09,36,5.40
2015,03,02,09,37,5.50
2015,03,02,09,38,5.60
2015,03,02,09,39,5.60
2015,03,02,09,40,5.70
2015,03,02,09,41,5.70
2015,03,02,09,42,5.70
2015,03,02,09,43,5.70
2015,03,02,09,44,5.70
2015,03,02,09,45,5.70
2015,03,02,09,46,5.70
2015,03,02,09,47,5.70
2015,03,02,09,48,5.70
2015,03,02,09,49,5.70
2015,03,02,09,50,5.70
2015,03,02,09,51,5.70
2015,03,02,09,52,5.70
2015,03,02,09,53,5.70
2015,03,02,09,54,5.70
2015,03,02,09,55,5.70
2015,03,02,09,56,5.70
2015,03,02,09,57,5.70
2015,03,02,09,58,5.80
2015,03,02,09,59,5.80
2015,03,02,10,00,5.80
2015,03,02,10,01,5.80
2015,03,02,10,02,5.90
2015,03,02,10,03,5.90
2015,03,02,10,04,5.90
2015,03,02,10,05,5.90
2015,03,02,10,06,5.90
2015,03,02,10,07,6.00
2015,03,02,10,08,6.00
2015,03,02,10,09,6.00
2015,03,02,10,10,6.10
2015,03,02,10,11,6.10
2015,03,02,10,12,6.20
2015,03,02,10,13,6.20
2015,03,02,10,14,6.20
2015,03,02,10,15,6.30
2015,03,02,10,16,6.30
2015,03,02,10,17,6.30
2015,03,02,10,18,6.40
2015,03,02,10,19,6.40
2015,03,02,10,20,6.40
2015,03,02,10,21,6.50
2015,03,02,10,22,6.50
2015,03,02,10,23,6.50
2015,03,02,10,24,6.60
2015,03,02,10,25,6.60
2015,03,02,10,26,6.60
2015,03,02,10,27,6.60
2015,03,02,10,28,6.60
2015,03,02,10,29,6.70
2015,03,02,10,30,6.70
2015,03,02,10,31,6.80
2015,03,02,10,32,6.80
2015,03,02,10,33,6.90
2015,03,02,10,34,6.90
2015,03,02,10,35,7.00
2015,03,02,10,36,7.00
2015,03,02,10,37,7.10
2015,03,02,10,38,7.10
2015,03,02,10,39,7.10
2015,03,02,10,40,7.10
2015,03,02,10,41,7.20
2015,03,02,10,42,7.20
2015,03,02,10,43,7.20
2015,03,02,10,44,7.30
2015,03,02,10,45,7.30
2015,03,02,10,46,7.30
2015,03,02,10,47,7.40
2015,03,02,10,48,7.40
2015,03,02,10,49,7.50
2015,03,02,10,50,7.50
2015,03,02,10,51,7.60
2015,03,02,10,52,7.60
2015,03,02,10,53,7.60
2015,03,02,10,54,7.70
2015,03,02,10,55,7.70
2015,03,02,10,56,7.70
2015,03,02,10,57,7.70
2015,03,02,10,58,7.70
2015,03,02,10,59,7.70
2015,03,02,11,00,7.70
2015,03,02,11,01,7.80
2015,03,02,11,02,7.80
2015,03,02,11,03,7.80
2015,03,02,11,04,7.80
2015,03,02,11,05,7.90
2015,03,02,11,06,7.90
2015,03,02,11,07,7.90
2015,03,02,11,08,8.00
2015,03,02,11,09,8.00
2015,03,02,11,10,8.00
2015,03,02,11,11,8.10
2015,03,02,11,12,8.10
2015,03,02,11,13,8.10
2015,03,02,11,14,8.10
2015,03,02,11,15,8.10
2015,03,02,11,16,8.20
2015,03,02,11,17,8.20
2015,03,02,11,18,8.20
2015,03,02,11,19,8.30
2015,03,02,11,20,8.30
2015,03,02,11,21,8.30
2015,03,02,11,22,8.40
2015,03,02,11,23,8.40
2015,03,02,11,24,8.50
2015,03,02,11,25,8.50
2015,03,02,11,26,8.60
2015,03,02,11,27,8.60
2015,03,02,11,28,8.70
2015,03,02,11,29,8.70
2015,03,02,11,30,8.80
2015,03,02,11,31,8.80
2015,03,02,11,32,8.90
2015,03,02,11,33,8.90
2015,03,02,11,34,9.00
2015,03,02,11,35,9.10
2015,03,02,11,36,9.10
2015,03,02,11,37,9.20
2015,03,02,11,38,9.20
2015,03,02,11,39,9.30
2015,03,02,11,40,9.30
2015,03,02,11,41,9.30
2015,03,02,11,42,9.40
2015,03,02,11,43,9.50
2015,03,02,11,44,9.50
2015,03,02,11,45,9.60
2015,03,02,11,46,9.60
2015,03,02,11,47,9.70
2015,03,02,11,48,9.70
2015,03,02,11,49,9.80
2015,03,02,11,50,9.80
2015,03,02,11,51,9.80
2015,03,02,11,52,9.90
2015,03,02,11,53,9.90
2015,03,02,11,54,10.00
2015,03,02,11,55,10.00
2015,03,02,11,56,10.10
2015,03,02,11,57,10.20
2015,03,02,11,58,10.30
2015,03,02,11,59,10.30
2015,03,02,12,00,10.40
2015,03,02,12,01,10.40
2015,03,02,12,02,10.50
2015,03,02,12,03,10.50
2015,03,02,12,04,10.60
2015,03,02,12,05,10.70
2015,03,02,12,06,10.70
2015,03,02,12,07,10.70
2015,03,02,12,08,10.70
2015,03,02,12,09,10.70
2015,03,02,12,10,10.70
2015,03,02,12,11,10.70
2015,03,02,12,12,10.70
2015,03,02,12,13,10.80
2015,03,02,12,14,10.80
2015,03,02,12,15,10.80
2015,03,02,12,16,10.90
2015,03,02,12,17,10.90
2015,03,02,12,18,10.90
2015,03,02,12,19,11.00
2015,03,02,12,20,11.00
2015,03,02,12,21,11.10
2015,03,02,12,22,11.20
2015,03,02,12,23,11.20
2015,03,02,12,24,11.20
2015,03,02,12,25,11.30
2015,03,02,12,26,11.30
2015,03,02,12,27,11.40
2015,03,02,12,28,11.40
2015,03,02,12,29,11.40
2015,03,02,12,30,11.50
2015,03,02,12,31,11.50
2015,03,02,12,32,11.50
2015,03,02,12,33,11.50
2015,03,02,12,34,11.50
2015,03,02,12,35,11.50
2015,03,02,12,36,11.50
2015,03,02,12,37,11.50
2015,03,02,12,38,11.60
2015,03,02,12,39,11.60
2015,03,02,12,40,11.60
2015,03,02,12,41,11.60
2015,03,02,12,42,11.60
2015,03,02,12,43,11.70
2015,03,02,12,44,11.80
2015,03,02,12,45,11.80
2015,03,02,12,46,11.90
2015,03,02,12,47,11.90
2015,03,02,12,48,11.90
2015,03,02,12,49,12.00
2015,03,02,12,50,12.10
2015,03,02,12,51,12.10
2015,03,02,12,52,12.10
2015,03,02,12,53,12.20
2015,03,02,12,54,12.20
2015,03,02,12,55,12.20
2015,03,02,12,56,12.30
2015,03,02,12,57,12.30
2015,03,02,12,58,12.30
2015,03,02,12,59,12.20
2015,03,02,13,00,12.20
2015,03,02,13,01,12.20
2015,03,02,13,02,12.20
2015,03,02,13,03,12.20
2015,03,02,13,04,12.20
2015,03,02,13,05,12.20
2015,03,02,13,06,12.20
2015,03,02,13,07,12.20
2015,03,02,13,08,12.10
2015,03,02,13,09,12.10
2015,03,02,13,10,12.10
2015,03,02,13,11,12.10
2015,03,02,13,12,12.20
2015,03,02,13,13,12.20
2015,03,02,13,14,12.20
2015,03,02,13,15,12.30
2015,03,02,13,16,12.30
2015,03,02,13,17,12.30
2015,03,02,13,18,12.30
2015,03,02,13,19,12.30
2015,03,02,13,20,12.30
2015,03,02,13,21,12.30
2015,03,02,13,22,12.30
2015,03,02,13,23,12.30
2015,03,02,13,24,12.40
2015,03,02,13,25,12.40
2015,03,02,13,26,12.40
2015,03,02,13,27,12.40
2015,03,02,13,28,12.40
2015,03,02,13,29,12.50
2015,03,02,13,30,12.50
2015,03,02,13,31,12.50
2015,03,02,13,32,12.50
2015,03,02,13,33,12.50
2015,03,02,13,34,12.50
2015,03,02,13,35,12.50
2015,03,02,13,36,12.40
2015,03,02,13,37,12.40
2015,03,02,13,38,12.40
2015,03,02,13,39,12.50
2015,03,02,13,40,12.50
2015,03,02,13,41,12.60
2015,03,02,13,42,12.60
2015,03,02,13,43,12.60
2015,03,02,13,44,12.50
2015,03,02,13,45,12.60
2015,03,02,13,46,12.70
2015,03,02,13,47,12.70
2015,03,02,13,48,12.70
2015,03,02,13,49,12.70
2015,03,02,13,50,12.70
2015,03,02,13,51,12.70
2015,03,02,13,52,12.80
2015,03,02,13,53,12.80
2015,03,02,13,54,12.80
2015,03,02,13,55,12.80
2015,03,02,13,56,12.90
2015,03,02,13,57,12.90
2015,03,02,13,58,12.90
2015,03,02,13,59,12.80
2015,03,02,14,00,12.90
2015,03,02,14,01,12.90
2015,03,02,14,02,12.90
2015,03,02,14,03,13.00
2015,03,02,14,04,13.00
2015,03,02,14,05,13.00
2015,03,02,14,06,12.90
2015,03,02,14,07,12.90
2015,03,02,14,08,12.90
2015,03,02,14,09,12.90
2015,03,02,14,10,12.90
2015,03,02,14,11,12.90
2015,03,02,14,12,12.90
2015,03,02,14,13,12.90
2015,03,02,14,14,12.90
2015,03,02,14,15,12.90
2015,03,02,14,16,12.90
2015,03,02,14,17,12.90
2015,03,02,14,18,12.90
2015,03,02,14,19,12.90
2015,03,02,14,20,12.90
2015,03,02,14,21,12.90
2015,03,02,14,22,12.90
2015,03,02,14,23,12.90
2015,03,02,14,24,12.90
2015,03,02,14,25,13.00
2015,03,02,14,26,13.00
2015,03,02,14,27,13.00
2015,03,02,14,28,13.00
2015,03,02,14,29,13.10
2015,03,02,14,30,13.10
2015,03,02,14,31,13.10
2015,03,02,14,32,13.20
2015,03,02,14,33,13.20
2015,03,02,14,34,13.20
2015,03,02,14,35,13.20
2015,03,02,14,36,13.20
2015,03,02,14,37,13.20
2015,03,02,14,38,13.20
2015,03,02,14,39,13.20
2015,03,02,14,40,13.20
2015,03,02,14,41,13.20
2015,03,02,14,42,13.10
2015,03,02,14,43,13.10
2015,03,02,14,44,13.10
2015,03,02,14,45,13.20
2015,03,02,14,46,13.20
2015,03,02,14,47,13.10
2015,03,02,14,48,13.10
2015,03,02,14,49,13.10
2015,03,02,14,50,13.10
2015,03,02,14,51,13.10
2015,03,02,14,52,13.10
2015,03,02,14,53,13.10
2015,03,02,14,54,13.10
2015,03,02,14,55,13.10
2015,03,02,14,56,13.10
2015,03,02,14,57,13.10
2015,03,02,14,58,13.10
2015,03,02,14,59,13.10
2015,03,02,15,00,13.10
2015,03,02,15,01,13.20
2015,03,02,15,02,13.20
2015,03,02,15,03,13.20
2015,03,02,15,04,13.20
2015,03,02,15,05,13.20
2015,03,02,15,06,13.20
2015,03,02,15,07,13.20
2015,03,02,15,08,13.20
2015,03,02,15,09,13.30
2015,03,02,15,10,13.30
2015,03,02,15,11,13.30
2015,03,02,15,12,13.30
2015,03,02,15,13,13.30
2015,03,02,15,14,13.30
2015,03,02,15,15,13.30
2015,03,02,15,16,13.30
2015,03,02,15,17,13.40
2015,03,02,15,18,13.30
2015,03,02,15,19,13.30
2015,03,02,15,20,13.30
2015,03,02,15,21,13.30
2015,03,02,15,22,13.30
2015,03,02,15,23,13.30
2015,03,02,15,24,13.30
2015,03,02,15,25,13.30
2015,03,02,15,26,13.30
2015,03,02,15,27,13.20
2015,03,02,15,28,13.20
2015,03,02,15,29,13.20
2015,03,02,15,30,13.20
2015,03,02,15,31,13.20
2015,03,02,15,32,13.20
2015,03,02,15,33,13.20
2015,03,02,15,34,13.20
2015,03,02,15,35,13.10
2015,03,02,15,36,13.10
2015,03,02,15,37,13.10
2015,03,02,15,38,13.20
2015,03,02,15,39,13.20
2015,03,02,15,40,13.20
2015,03,02,15,41,13.20
2015,03,02,15,42,13.20
2015,03,02,15,43,13.20
2015,03,02,15,44,13.20
2015,03,02,15,45,13.20
2015,03,02,15,46,13.20
2015,03,02,15,47,13.20
2015,03,02,15,48,13.20
2015,03,02,15,49,13.20
2015,03,02,15,50,13.10
2015,03,02,15,51,13.10
2015,03,02,15,52,13.10
2015,03,02,15,53,13.10
2015,03,02,15,54,13.10
2015,03,02,15,55,13.00
2015,03,02,15,56,13.00
2015,03,02,15,57,13.00
2015,03,02,15,58,13.00
2015,03,02,15,59,13.00
2015,03,02,16,00,13.00
2015,03,02,16,01,13.00
2015,03,02,16,02,13.00
2015,03,02,16,03,13.00
2015,03,02,16,04,13.00
2015,03,02,16,05,13.00
2015,03,02,16,06,13.00
2015,03,02,16,07,12.90
2015,03,02,16,08,12.90
2015,03,02,16,09,12.90
2015,03,02,16,10,12.90
2015,03,02,16,11,12.90
2015,03,02,16,12,12.90
2015,03,02,16,13,12.90
2015,03,02,16,14,12.90
2015,03,02,16,15,12.90
2015,03,02,16,16,12.90
2015,03,02,16,17,12.90
2015,03,02,16,18,12.90
2015,03,02,16,19,12.90
2015,03,02,16,20,13.00
2015,03,02,16,21,13.00
2015,03,02,16,22,13.00
2015,03,02,16,23,13.10
2015,03,02,16,24,13.10
2015,03,02,16,25,13.00
2015,03,02,16,26,13.00
2015,03,02,16,27,12.90
2015,03,02,16,28,12.90
2015,03,02,16,29,12.90
2015,03,02,16,30,12.90
2015,03,02,16,31,12.90
2015,03,02,16,32,12.90
2015,03,02,16,33,12.90
2015,03,02,16,34,13.00
2015,03,02,16,35,13.00
2015,03,02,16,36,13.00
2015,03,02,16,37,13.00
2015,03,02,16,38,13.00
2015,03,02,16,39,13.00
2015,03,02,16,40,13.00
2015,03,02,16,41,12.90
2015,03,02,16,42,12.90
2015,03,02,16,43,13.00
2015,03,02,16,44,13.00
2015,03,02,16,45,12.90
2015,03,02,16,46,12.90
2015,03,02,16,47,13.00
2015,03,02,16,48,13.00
2015,03,02,16,49,13.00
2015,03,02,16,50,12.90
2015,03,02,16,51,12.90
2015,03,02,16,52,12.90
2015,03,02,16,53,12.90
2015,03,02,16,54,12.90
2015,03,02,16,55,12.90
2015,03,02,16,56,12.90
2015,03,02,16,57,12.80
2015,03,02,16,58,12.80
2015,03,02,16,59,12.80
2015,03,02,17,00,12.80
2015,03,02,17,01,12.80
2015,03,02,17,02,12.80
2015,03,02,17,03,12.80
2015,03,02,17,04,12.70
2015,03,02,17,05,12.70
2015,03,02,17,06,12.70
2015,03,02,17,07,12.60
2015,03,02,17,08,12.60
2015,03,02,17,09,12.60
2015,03,02,17,10,12.50
2015,03,02,17,11,12.50
2015,03,02,17,12,12.50
2015,03,02,17,13,12.40
2015,03,02,17,14,12.40
2015,03,02,17,15,12.40
2015,03,02,17,16,12.30
2015,03,02,17,17,12.30
2015,03,02,17,18,12.30
2015,03,02,17,19,12.30
2015,03,02,17,20,12.30
2015,03,02,17,21,12.20
2015,03,02,17,22,12.20
2015,03,02,17,23,12.20
2015,03,02,17,24,12.10
2015,03,02,17,25,12.10
2015,03,02,17,26,12.10
2015,03,02,17,27,12.00
2015,03,02,17,28,12.00
2015,03,02,17,29,11.90
2015,03,02,17,30,11.90
2015,03,02,17,31,11.90
2015,03,02,17,32,11.90
2015,03,02,17,33,11.80
2015,03,02,17,34,11.80
2015,03,02,17,35,11.80
2015,03,02,17,36,11.70
2015,03,02,17,37,11.70
2015,03,02,17,38,11.60
2015,03,02,17,39,11.60
2015,03,02,17,40,11.50
2015,03,02,17,41,11.40
2015,03,02,17,42,11.40
2015,03,02,17,43,11.30
2015,03,02,17,44,11.30
2015,03,02,17,45,11.30
2015,03,02,17,46,11.20
2015,03,02,17,47,11.20
2015,03,02,17,48,11.10
2015,03,02,17,49,11.10
2015,03,02,17,50,11.00